| time (UTC) | temp F | wind direction | speed MPH | gust MPH | rain 1hr in | rain 24hr in | rain mn in | humidity % | barometer mb |
| 20260901084552 | 75 | 0 | 0.0 | 0.0 | 0.00 | 0.00 | 0.00 | 28 | 1017.6 |
| 20260901083050 | 76 | 0 | 0.0 | 0.0 | 0.00 | 0.00 | 0.00 | 28 | 1017.7 |
| 20260901081546 | 76 | 0 | 0.0 | 0.0 | 0.00 | 0.00 | 0.00 | 28 | 1017.9 |
| 20260901080054 | 76 | 0 | 0.0 | 0.0 | 0.00 | 0.00 | 0.00 | 27 | 1017.8 |
| 20260901074553 | 76 | 0 | 0.0 | 0.0 | 0.00 | 0.00 | 0.00 | 27 | 1017.6 |
| 20260901073103 | 76 | 0 | 0.0 | 0.0 | 0.00 | 0.00 | 0.00 | 26 | 1017.7 |
| 20260901071603 | 76 | 0 | 0.0 | 0.0 | 0.00 | 0.00 | 0.00 | 26 | 1017.9 |
| 20260901070057 | 76 | 0 | 0.0 | 0.0 | 0.00 | 0.00 | 0.00 | 25 | 1017.9 |
| 20260901064555 | 76 | 0 | 0.0 | 0.0 | 0.00 | 0.00 | 0.00 | 29 | 1017.9 |
| 20260901063055 | 76 | 0 | 0.0 | 0.0 | 0.00 | 0.00 | 0.00 | 31 | 1018.1 |
| 20260901061555 | 76 | 0 | 0.0 | 0.0 | 0.00 | 0.00 | 0.00 | 30 | 1018.2 |
| 20260901060050 | 76 | 0 | 0.0 | 0.0 | 0.00 | 0.00 | 0.00 | 31 | 1018.2 |
| 20260901054556 | 75 | 0 | 0.0 | 0.0 | 0.00 | 0.00 | 0.00 | 33 | 1018.3 |
| 20260901053118 | 75 | 0 | 0.0 | 0.0 | 0.00 | 0.00 | 0.00 | 38 | 1018.4 |
| 20260901051549 | 75 | 0 | 0.0 | 0.0 | 0.00 | 0.00 | 0.00 | 42 | 1018.5 |
| 20260901050055 | 75 | 0 | 0.0 | 0.0 | 0.00 | 0.00 | 0.00 | 45 | 1018.3 |
| 20260901044554 | 75 | 0 | 0.0 | 0.0 | 0.00 | 0.00 | 0.00 | 49 | 1018.4 |
| 20260901043118 | 75 | 0 | 0.0 | 0.0 | 0.00 | 0.00 | 0.00 | 51 | 1018.2 |
| 20260901041607 | 75 | 0 | 0.0 | 0.0 | 0.00 | 0.00 | 0.00 | 53 | 1018.2 |
| 20260901040054 | 75 | 0 | 0.0 | 0.0 | 0.00 | 0.00 | 0.00 | 57 | 1018.2 |
| 20260901034604 | 75 | 0 | 0.0 | 0.0 | 0.00 | 0.00 | 0.00 | 58 | 1018.0 |
| 20260901033104 | 76 | 0 | 0.0 | 0.0 | 0.00 | 0.00 | 0.00 | 61 | 1017.9 |
| 20260901031551 | 76 | 0 | 0.0 | 0.0 | 0.00 | 0.00 | 0.00 | 63 | 1017.9 |
| 20260901030055 | 76 | 0 | 0.0 | 0.0 | 0.00 | 0.00 | 0.00 | 65 | 1017.9 |
| 20260901024601 | 76 | 0 | 0.0 | 0.0 | 0.00 | 0.00 | 0.00 | 67 | 1018.0 |
| 20260901023054 | 76 | 0 | 0.0 | 0.0 | 0.00 | 0.00 | 0.00 | 68 | 1017.9 |
| 20260901021546 | 77 | 0 | 0.0 | 0.0 | 0.00 | 0.00 | 0.00 | 68 | 1017.9 |
| 20260901020058 | 77 | 0 | 0.0 | 0.0 | 0.00 | 0.00 | 0.00 | 70 | 1018.0 |
| 20260901014553 | 77 | 0 | 0.0 | 0.0 | 0.00 | 0.00 | 0.00 | 72 | 1017.9 |
| 20260901013052 | 77 | 0 | 0.0 | 0.0 | 0.00 | 0.00 | 0.00 | 72 | 1017.9 |
| 20260901011559 | 78 | 0 | 0.0 | 0.0 | 0.00 | 0.00 | 0.00 | 72 | 1017.6 |
| 20260901010052 | 78 | 0 | 0.0 | 0.0 | 0.00 | 0.00 | 0.00 | 74 | 1017.4 |
| 20260901004602 | 78 | 0 | 0.0 | 0.0 | 0.00 | 0.00 | 0.00 | 76 | 1017.2 |
| 20260901003100 | 78 | 0 | 0.0 | 0.0 | 0.00 | 0.00 | 0.00 | 76 | 1017.0 |
| 20260901001555 | 79 | 0 | 0.0 | 0.0 | 0.00 | 0.00 | 0.00 | 76 | 1017.1 |
| 20260901000051 | 79 | 0 | 0.0 | 0.0 | 0.00 | 0.00 | 0.00 | 76 | 1016.9 |
| 20260831234557 | 80 | 0 | 0.0 | 0.0 | 0.00 | 0.00 | 0.00 | 76 | 1017.0 |
| 20260831233056 | 80 | 0 | 0.0 | 0.0 | 0.00 | 0.00 | 0.00 | 76 | 1016.8 |
| 20260831231551 | 81 | 0 | 0.0 | 0.0 | 0.00 | 0.00 | 0.00 | 76 | 1016.8 |
| 20260831230048 | 81 | 0 | 0.0 | 0.0 | 0.00 | 0.00 | 0.00 | 76 | 1016.7 |
| 20260831224543 | 82 | 0 | 0.0 | 0.0 | 0.00 | 0.00 | 0.00 | 75 | 1016.7 |
| 20260831223048 | 82 | 0 | 0.0 | 0.0 | 0.00 | 0.00 | 0.00 | 75 | 1016.7 |
| 20260831221546 | 82 | 0 | 0.0 | 0.0 | 0.00 | 0.00 | 0.00 | 74 | 1016.7 |
| 20260831220123 | 82 | 0 | 0.0 | 0.0 | 0.00 | 0.00 | 0.00 | 73 | 1016.8 |
| 20260831214549 | 83 | 0 | 0.0 | 0.0 | 0.00 | 0.00 | 0.00 | 74 | 1017.0 |
| 20260831213105 | 83 | 0 | 0.0 | 0.0 | 0.00 | 0.00 | 0.00 | 73 | 1017.0 |
| 20260831211558 | 84 | 0 | 0.0 | 0.0 | 0.00 | 0.00 | 0.00 | 71 | 1017.0 |
| 20260831210053 | 84 | 0 | 0.0 | 0.0 | 0.00 | 0.00 | 0.00 | 71 | 1017.1 |
| 20260831204556 | 85 | 0 | 0.0 | 0.0 | 0.00 | 0.02 | 0.00 | 73 | 1017.1 |
| 20260831203057 | 85 | 0 | 0.0 | 0.0 | 0.00 | 0.02 | 0.00 | 67 | 1017.3 |
| 20260831201557 | 85 | 0 | 0.0 | 0.0 | 0.00 | 0.02 | 0.00 | 69 | 1017.4 |
| 20260831200051 | 85 | 0 | 0.0 | 0.0 | 0.00 | 0.02 | 0.00 | 64 | 1017.4 |
| 20260831194556 | 84 | 0 | 0.0 | 0.0 | 0.00 | 0.02 | 0.00 | 68 | 1017.6 |
| 20260831193056 | 83 | 0 | 0.0 | 0.0 | 0.00 | 0.02 | 0.00 | 70 | 1017.9 |
| 20260831191550 | 83 | 0 | 0.0 | 0.0 | 0.00 | 0.02 | 0.00 | 75 | 1018.0 |
| 20260831190057 | 84 | 0 | 0.0 | 0.0 | 0.00 | 0.02 | 0.00 | 71 | 1018.1 |
| 20260831184557 | 85 | 0 | 0.0 | 0.0 | 0.00 | 0.02 | 0.00 | 70 | 1018.4 |
| 20260831183054 | 85 | 0 | 0.0 | 0.0 | 0.00 | 0.02 | 0.00 | 67 | 1018.4 |
| 20260831181557 | 85 | 0 | 0.0 | 0.0 | 0.00 | 0.02 | 0.00 | 68 | 1018.5 |
| 20260831180057 | 84 | 0 | 0.0 | 0.0 | 0.00 | 0.02 | 0.00 | 72 | 1018.6 |
| 20260831174554 | 83 | 0 | 0.0 | 0.0 | 0.00 | 0.02 | 0.00 | 74 | 1018.9 |
| 20260831173052 | 83 | 0 | 0.0 | 0.0 | 0.00 | 0.02 | 0.00 | 73 | 1018.8 |
| 20260831171600 | 83 | 0 | 0.0 | 0.0 | 0.00 | 0.02 | 0.00 | 75 | 1018.8 |
| 20260831170057 | 82 | 0 | 0.0 | 0.0 | 0.00 | 0.02 | 0.00 | 74 | 1019.0 |
| 20260831164557 | 81 | 0 | 0.0 | 0.0 | 0.00 | 0.02 | 0.00 | 74 | 1019.1 |
| 20260831163058 | 81 | 0 | 0.0 | 0.0 | 0.00 | 0.02 | 0.00 | 67 | 1019.2 |
| 20260831161602 | 80 | 0 | 0.0 | 0.0 | 0.00 | 0.02 | 0.00 | 55 | 1019.3 |
| 20260831160117 | 79 | 0 | 0.0 | 0.0 | 0.00 | 0.02 | 0.00 | 33 | 1019.5 |
| 20260831154611 | 78 | 0 | 0.0 | 0.0 | 0.00 | 0.02 | 0.00 | 13 | 1019.7 |
| 20260831153126 | 77 | 0 | 0.0 | 0.0 | 0.00 | 0.02 | 0.00 | 1 | 1019.9 |
| 20260831151558 | 76 | 0 | 0.0 | 0.0 | 0.00 | 0.02 | 0.00 | 100 | 1019.9 |
| 20260831150049 | 76 | 0 | 0.0 | 0.0 | 0.00 | 0.02 | 0.00 | 100 | 1019.8 |
| 20260831144544 | 75 | 0 | 0.0 | 0.0 | 0.00 | 0.02 | 0.00 | 1 | 1019.8 |
| 20260831143059 | 75 | 0 | 0.0 | 0.0 | 0.00 | 0.02 | 0.00 | 2 | 1019.8 |
| 20260831141555 | 74 | 0 | 0.0 | 0.0 | 0.00 | 0.02 | 0.00 | 3 | 1019.6 |
| 20260831140046 | 74 | 0 | 0.0 | 0.0 | 0.00 | 0.02 | 0.00 | 3 | 1019.5 |
| 20260831134605 | 74 | 0 | 0.0 | 0.0 | 0.00 | 0.02 | 0.00 | 4 | 1019.3 |
| 20260831133059 | 73 | 0 | 0.0 | 0.0 | 0.00 | 0.02 | 0.00 | 4 | 1019.5 |
| 20260831131554 | 72 | 0 | 0.0 | 0.0 | 0.00 | 0.02 | 0.00 | 6 | 1019.5 |
| 20260831130057 | 70 | 0 | 0.0 | 0.0 | 0.00 | 0.02 | 0.00 | 7 | 1019.5 |
| 20260831124601 | 70 | 0 | 0.0 | 0.0 | 0.00 | 0.02 | 0.00 | 8 | 1019.5 |
| 20260831123056 | 69 | 0 | 0.0 | 0.0 | 0.00 | 0.02 | 0.00 | 8 | 1019.8 |
| 20260831121550 | 69 | 0 | 0.0 | 0.0 | 0.00 | 0.02 | 0.00 | 8 | 1019.6 |
| 20260831120131 | 69 | 0 | 0.0 | 0.0 | 0.00 | 0.02 | 0.00 | 8 | 1019.5 |
| 20260831114558 | 69 | 0 | 0.0 | 0.0 | 0.00 | 0.02 | 0.00 | 9 | 1019.4 |
| 20260831113058 | 69 | 0 | 0.0 | 0.0 | 0.00 | 0.02 | 0.00 | 9 | 1019.4 |
| 20260831111554 | 68 | 0 | 0.0 | 0.0 | 0.00 | 0.02 | 0.00 | 9 | 1019.4 |
| 20260831110047 | 69 | 0 | 0.0 | 0.0 | 0.00 | 0.02 | 0.00 | 9 | 1019.3 |
| 20260831104543 | 69 | 0 | 0.0 | 0.0 | 0.00 | 0.02 | 0.00 | 9 | 1019.3 |
| 20260831103050 | 69 | 0 | 0.0 | 0.0 | 0.00 | 0.02 | 0.00 | 8 | 1019.2 |
| 20260831101606 | 69 | 0 | 0.0 | 0.0 | 0.00 | 0.02 | 0.00 | 9 | 1019.2 |
| 20260831100051 | 69 | 0 | 0.0 | 0.0 | 0.00 | 0.02 | 0.00 | 9 | 1018.9 |
| 20260831094555 | 68 | 0 | 0.0 | 0.0 | 0.00 | 0.02 | 0.00 | 9 | 1018.9 |
| 20260831093055 | 68 | 0 | 0.0 | 0.0 | 0.00 | 0.02 | 0.00 | 9 | 1018.9 |
| 20260831091546 | 68 | 0 | 0.0 | 0.0 | 0.00 | 0.02 | 0.00 | 9 | 1018.9 |
| 20260831090044 | 68 | 0 | 0.0 | 0.0 | 0.00 | 0.02 | 0.00 | 9 | 1018.7 |